SCP
0 0 0 0 0 0 0 0 0 0 0 0 0 0 0 0 0 0 0 0 0 0 0 0 0 0 0 0 0 0 0 0 0 0 0 0 -0 -0 -0 -0 0 0 -0 0 0 -0 0
0 0 0 0 0 0 0 0 0 0 0 0 0 0 0 0 0 0 0 0 0 0 0 0 0 0 0 0 0 0 0 0 0 -0 0 -0 0 -0 -0 -0 0 0 0 -0 0 -0 0
0 0 0 0 0 0 0 0 0 0 0 0 0 0 0 0 0 0 0 0 0 0 0 0 0 0 0 -0 0 0 0 -0 -0 -0 0 -0 0 0 -0 -0 -0 0 0 0 0 0 0
0 0 0 0 0 0 0 0 0 0 0 0 0 0 0 0 0 0 0 0 0 0 0 0 0 0 0 0 0 0 0 -0 -0 -0 0 0 0 0 0 -0 -0 -0 0 0 -0 0 -0
0 0 0 0 0 0 0 0 0 0 0 0 0 0 0 0 0 0 0 -0 0 0 -0 0 0 0 0 0 0 0 -0 -0 -0 0 0 0 0 0 0 0 -0 0 0 -0 -0 -0 0
0 0 0 0 0 0 0 0 0 0 0 0 0 0 0 0 0 0 0 -0 0 0 0 -0 0 0 -0 -0 0 0 0 -0 0 -0 0 0 0 0 0 0 -0 0 0 -0 0 0 0
0 0 0 0 0 0 0 0 0 0 0 0 0 0 0 0 0 0 -0 0 0 0 0 0 0 -0 -0 -0 0 0 0 0 0 0 0 -0 0 0 -0 -0 -0 -0 -0 0 -0 -0 0
0 0 0 0 0 0 0 0 0 0 0 0 0 0 0 0 0 0 -0 0 0 0 0 0 0 -0 0 0 0 0 0 0 0 0 -0 -0 0 -0 -0 -0 -0 -0 0 0 0 -0 0
0 0 0 0 0 0 0 0 0 0 0 0 0 0 0 0 0 0 -0 0 0 0 0 0 -0 -0 0 0 -0 0 0 -0 0 0 0 -0 0 -0 -0 -0 0 0 0 0 0 0 0
0 0 0 0 0 0 0 0 0 0 0 0 0 0 0 0 0 0 0 0 0 0 0 0 0 0 -0 0 0 -0 0 -0 -0 0 -0 -0 0 0 0 0 0 0 -0 -0 0 0 0
0 0 0 0 0 0 0 0 0 0 0 0 0 0 0 0 0 0 0 0 0 0 0 0 0 0 0 -0 0 -0 -0 -0 -0 -0 0 0 0 0 0 0 0 0 0 0 0 0 0
0 0 0 0 0 0 0 0 0 0 0 0 0 0 0 0 0 0 0 0 0 0 0 0 0 0 0 -0 0 0 0 -0 -0 0 0 0 0 0 0 0 0 0 0 0 0 0 0
0 0 0 0 0 0 0 0 0 0 0 0 0 0 0 0 0 0 0 0 0 0 -0 0 0 0 0 0 0 0 0 0 0 0 0 0 0 0 0 0 0 0 0 0 0 0 0
0 0 0 0 0 0 0 0 0 0 0 0 0 0 0 0 0 0 0 0 0 0 -0 0 -0 0 0 0 -0 0 0 0 0 -0 0 0 0 -0 0 0 0 0 0 0 0 0 0
0 0 0 0 0 0 0 0 0 0 0 0 0 0 0 0 0 0 0 0 0 0 0 0 0 0 0 -0 -0 0 0 -0 -0 -0 -0 -0 0 0 0 0 0 0 0 -0 0 0 0
0 0 0 0 0 0 0 0 0 0 0 0 0 0 0 0 0 0 0 0 0 -0 0 0 0 0 0 0 0 0 0 0 0 -0 0 0 0 0 0 0 0 0 0 0 0 0 0
0 0 0 0 0 0 0 0 0 0 0 0 0 0 0 -0 0 0 0 0 0 0 0 0 0 0 0 0 0 0 0 0 0 0 0 0 0 0 0 0 0 0 0 0 0 0 0
0 0 0 0 -0 -0 0 0 0 0 0 0 0 0 0 0 0 0 0 0 0 0 0 0 0 0 0 0 0 -0 0 0 0 0 0 0 0 0 0 0 0 0 0 0 0 0 0
0 0 0 0 0 0 0 0 0 0 0 0 0 0 0 0 0 0 0 0 0 0 0 0 0 0 0 0 0 0 0 0 0 0 0 0 0 0 0 0 0 0 0 0 0 0 0
0 0 -0 0 0 0 0 0 0 -0 0 0 1 0 0 0 0 0 0 0 0 0 0 0 0 0 0 0 0 0 0 0 0 0 0 0 0 0 0 0 0 0 0 0 0 0 0
0 0 -0 0 -0 0 -0 0 0 0 0 0 0 0 0 0 0 0 0 0 0 0 0 0 0 0 0 0 0 0 0 0 0 0 0 0 0 0 0 0 0 0 -0 0 0 0 0
0 0 0 0 0 0 -0 0 0 0 0 0 0 0 0 0 0 0 0 0 0 0 0 0 0 0 0 0 0 0 0 0 0 0 0 0 0 0 0 0 0 0 0 0 0 0 0
-0 -0 0 0 0 -0 0 0 0 0 0 0 0 0 0 0 0 0 0 0 0 0 0 0 0 0 0 0 0 0 0 0 0 0 0 0 0 0 0 0 -0 0 0 0 0 0 0
-0 0 0 0 -0 0 0 0 0 0 0 0 0 0 0 0 0 0 0 0 0 0 0 0 0 0 0 0 0 0 0 0 0 0 0 0 0 0 0 0 -0 0 0 0 0 1 0
-0 -0 0 0 0 -0 -0 0 0 0 0 0 0 0 0 0 0 0 0 0 0 0 0 0 0 0 0 0 0 0 0 0 0 0 0 0 0 0 0 0 0 0 1 0 0 0 0
-0 -0 0 0 0 -0 -0 0 0 0 0 0 0 0 0 0 0 0 0 0 0 0 0 0 0 1 1 0 0 0 0 0 0 0 0 0 0 0 0 0 0 1 0 -0 0 0 0
-0 -0 -0 0 -0 -0 -0 0 0 0 0 0 0 0 0 0 0 0 1 0 0 0 0 0 0 0 0 0 0 0 0 0 0 0 0 0 0 0 0 0 0 0 0 0 0 1 0
0 -0 0 0 0 0 -0 0 0 0 0 0 0 0 0 0 0 0 0 0 0 0 1 0 0 0 0 0 0 0 0 0 0 0 0 -0 0 -0 0 0 1 0 0 0 0 0 0
-0 0 0 0 -0 -0 -0 0 0 0 0 0 0 0 0 0 -0 0 0 0 0 0 0 0 0 0 0 0 0 0 0 0 0 0 0 0 1 1 1 0 0 0 0 0 0 0 0
Wind_Speed_500mb
41 42 42 41 41 40 39 39 37 36 33 32 32 33 33 35 38 40 44 48 48 46 43 40 38 32 33 20 24 3 0 16 30 36 23 28 28 31 33 40 38 31 33 20 9 8 25
42 43 44 44 43 42 42 42 40 38 37 36 34 33 34 35 38 41 45 49 50 47 42 39 36 30 27 33 4 5 6 20 26 23 19 29 24 32 36 47 32 34 34 44 17 17 17
46 44 45 46 46 46 44 43 41 40 40 38 36 34 34 35 38 42 46 49 51 46 40 36 31 27 27 38 6 12 21 21 23 21 24 26 29 29 40 31 44 42 21 35 29 19 16
51 49 47 47 48 48 48 46 44 42 40 39 37 35 35 36 37 41 47 49 49 45 37 31 26 21 23 11 13 19 23 20 20 22 24 22 27 27 30 36 35 32 29 28 37 29 31
57 55 52 50 50 50 50 49 47 44 41 38 38 35 33 34 36 40 48 50 40 38 31 25 17 18 36 25 22 28 27 25 20 22 22 15 19 26 29 26 28 26 31 36 39 41 20
57 59 58 55 52 52 52 52 50 48 44 40 38 34 30 30 34 39 47 47 37 33 20 17 21 18 36 26 26 30 26 23 22 23 23 20 20 25 27 26 26 25 32 36 30 24 22
61 59 60 60 58 54 53 54 53 50 46 43 38 33 28 28 29 34 41 37 26 3 13 36 23 33 12 19 25 27 28 23 26 29 27 33 24 29 36 35 35 36 40 37 32 31 29
71 66 62 60 62 59 55 55 54 51 49 44 39 32 28 25 25 26 21 20 12 21 28 43 50 46 39 25 26 31 32 27 34 30 33 27 31 35 34 35 35 40 39 25 32 37 17
75 78 72 65 61 62 58 55 55 53 50 46 40 33 27 23 22 17 13 14 18 23 20 39 50 56 43 23 32 41 40 41 32 32 32 35 38 38 34 31 17 22 26 24 34 25 6
57 66 81 73 64 62 61 57 56 55 51 47 40 34 27 22 20 15 24 9 19 18 12 30 34 35 53 42 38 40 42 43 29 31 36 37 40 15 25 16 22 27 29 34 36 31 22
58 59 63 79 72 59 64 60 55 55 53 48 41 35 28 23 22 18 11 17 20 10 12 35 34 26 42 51 20 44 44 46 38 29 25 26 27 29 23 24 25 28 27 22 30 33 34
56 56 56 58 75 78 63 64 56 52 53 50 42 38 31 17 24 17 18 20 15 13 15 21 23 28 36 44 51 38 36 46 36 32 25 33 12 14 20 27 24 15 19 25 22 20 27
45 52 56 55 58 69 69 68 59 52 53 51 45 41 39 31 23 5 15 17 12 17 18 20 29 32 36 32 42 33 36 38 26 23 26 26 26 19 26 31 30 14 23 16 19 22 24
40 45 52 54 53 55 71 68 59 49 52 51 46 45 44 46 28 20 17 18 20 26 40 3 27 37 33 36 35 30 34 30 36 31 23 25 31 40 25 30 21 23 26 21 25 23 20
42 40 48 56 56 51 63 63 60 55 49 48 44 44 47 39 32 21 24 23 23 30 10 15 11 19 35 38 30 30 37 36 36 33 31 21 19 20 26 18 26 24 23 30 30 33 27
35 44 47 53 57 55 58 60 61 48 49 46 40 29 46 37 34 28 21 35 36 42 12 14 15 26 27 34 32 34 33 36 34 38 31 27 14 17 17 16 26 29 24 14 12 21 25
43 47 51 51 52 54 59 63 65 51 45 45 34 22 39 48 36 34 24 37 40 45 9 12 25 30 32 26 28 25 24 18 21 13 22 20 11 5 15 16 26 19 21 21 21 17 19
41 38 41 31 38 48 61 62 65 56 51 45 21 17 40 50 31 35 28 41 48 35 20 19 18 33 29 18 33 31 33 19 22 7 19 18 7 18 22 21 26 11 9 3 9 17 19
38 38 30 8 13 47 43 63 66 55 59 31 15 40 34 51 24 26 40 41 46 22 16 21 18 26 23 15 18 26 25 21 20 10 5 13 8 13 22 10 15 16 16 18 12 7 19
38 33 26 18 32 28 55 73 64 59 55 27 17 10 25 43 47 37 33 38 37 18 33 32 23 22 17 21 7 16 23 14 26 20 13 8 3 13 7 17 7 18 22 9 16 10 18
34 27 22 12 34 48 72 78 61 63 57 40 15 13 35 25 32 31 34 28 30 24 38 36 18 15 24 19 16 23 29 23 23 11 9 3 8 17 12 19 20 11 32 17 21 31 17
27 20 15 20 38 56 77 81 60 60 50 34 16 4 39 37 48 38 26 27 35 37 30 27 20 29 25 21 23 26 28 23 25 18 13 5 6 12 20 23 25 27 26 26 25 25 26
27 19 16 18 36 56 66 85 61 53 51 27 13 21 24 15 33 32 28 28 23 25 27 44 37 28 23 23 30 32 31 45 19 21 13 8 5 9 17 26 27 16 10 15 8 29 30
24 20 17 16 45 71 81 66 59 52 59 11 17 22 23 4 14 26 34 35 28 26 23 28 35 32 17 13 9 43 45 29 24 16 15 8 6 8 16 20 25 16 12 13 20 32 31
32 23 20 19 43 65 88 68 58 49 52 14 15 22 20 6 24 25 31 33 33 22 13 14 24 22 1 13 14 11 15 13 14 24 18 4 7 9 15 20 18 17 26 15 13 28 32
37 34 34 38 56 69 93 65 52 46 50 12 13 23 15 8 5 20 19 15 14 19 22 30 17 9 3 11 18 17 16 16 16 22 15 17 13 9 13 18 26 19 24 42 15 8 32
29 34 46 51 51 84 88 58 48 48 45 8 8 19 10 14 8 33 10 6 3 7 9 29 13 8 10 14 21 20 22 29 14 10 8 17 18 19 18 19 12 24 24 31 13 8 20
6 31 47 55 52 84 84 53 39 39 46 10 7 12 9 12 4 16 12 29 13 11 6 9 16 21 20 21 21 20 19 1 11 18 18 24 5 15 9 18 5 54 12 13 8 12 13
10 27 46 43 60 83 93 49 34 42 42 15 3 13 9 6 6 19 9 10 17 14 12 17 9 25 23 18 12 5 13 1 14 7 12 6 14 5 10 9 11 34 19 12 11 13 12
Wind_Direction_500mb
278 272 271 269 268 268 268 270 271 275 280 284 289 294 302 310 316 323 325 328 330 327 322 319 320 318 319 288 255 307 251 169 164 170 210 210 221 235 234 246 238 241 265 254 272 226 259
280 276 271 270 266 263 264 265 268 271 274 276 279 286 295 304 313 319 322 326 327 323 317 313 314 309 312 272 235 238 193 174 172 192 224 209 218 221 238 254 244 238 249 274 230 232 227
279 276 272 269 267 265 263 261 263 265 268 272 277 282 289 299 307 316 320 325 324 319 311 306 306 299 288 252 215 179 178 181 186 215 223 220 225 218 239 283 274 254 230 254 272 226 242
278 277 274 271 268 266 265 262 261 261 264 269 274 279 288 297 306 314 319 323 321 315 304 299 297 287 263 191 212 194 198 204 208 218 233 227 234 257 238 243 265 264 259 259 237 235 227
274 274 273 270 268 265 264 263 263 261 260 263 267 273 281 294 305 314 317 321 316 310 300 290 279 250 265 216 221 209 203 208 209 217 225 246 223 237 239 245 255 234 237 232 260 211 222
272 271 271 270 267 264 262 262 260 261 260 259 263 269 277 290 304 316 321 328 313 296 293 275 243 265 242 226 204 197 202 206 205 209 209 220 220 229 235 221 232 216 227 257 243 179 201
270 270 267 267 266 264 260 259 259 258 259 259 260 264 273 287 302 319 333 353 325 301 275 250 286 231 279 184 161 198 198 206 201 206 214 205 216 217 223 229 236 258 221 225 257 245 191
264 264 264 265 263 263 260 257 256 256 256 256 257 256 265 279 297 317 322 323 340 311 301 273 258 244 250 211 201 208 196 206 198 210 212 216 228 237 228 236 220 249 266 285 277 274 217
264 260 261 259 262 259 259 257 254 252 252 252 251 251 256 269 288 288 314 292 323 317 279 285 238 225 221 218 228 203 195 209 203 218 213 234 226 214 246 232 259 267 270 265 264 285 65
277 263 255 259 260 258 254 254 252 249 247 247 245 243 248 257 278 288 282 289 322 314 276 245 205 217 210 208 231 217 200 209 228 220 228 224 254 245 227 239 238 243 243 245 267 268 259
274 271 261 256 254 256 254 248 247 246 243 240 238 235 236 241 253 274 318 309 309 291 281 144 174 205 190 197 183 217 191 215 237 216 236 234 234 250 238 237 234 262 282 280 239 258 273
275 271 265 261 251 250 253 241 239 238 241 235 230 228 228 233 257 257 277 297 290 235 242 151 145 183 179 204 229 183 192 214 230 255 230 259 294 271 224 248 254 276 271 266 280 268 252
285 272 266 262 260 249 246 239 230 230 232 232 224 224 221 211 207 248 281 279 229 236 235 151 164 182 195 193 212 180 197 205 221 226 235 227 237 220 251 238 239 215 251 242 230 231 246
298 280 269 265 258 257 239 241 213 224 227 225 222 226 222 222 220 265 272 246 241 228 248 13 182 172 192 191 215 166 192 200 220 234 248 219 218 210 199 249 218 209 241 248 256 244 273
309 294 279 267 252 252 236 236 205 213 220 220 221 223 235 224 225 230 240 229 222 250 295 171 242 195 194 186 205 182 203 214 202 229 243 281 224 149 184 208 264 256 209 235 268 284 284
318 305 290 267 253 246 238 226 190 192 216 212 217 235 233 219 207 210 229 242 244 253 345 317 256 216 206 193 195 189 197 212 217 203 226 272 297 149 189 230 249 255 274 288 246 271 275
310 308 298 274 253 238 231 218 184 191 209 199 206 224 216 204 190 216 225 231 240 262 275 251 269 298 249 193 186 192 209 199 204 154 190 247 268 274 132 210 238 215 251 258 284 305 310
315 318 323 283 248 235 215 200 178 189 198 194 211 222 187 176 190 216 224 232 251 280 181 241 265 280 295 263 185 219 230 156 175 182 215 224 300 257 219 221 225 292 335 11 256 263 262
318 322 324 297 190 187 209 184 176 186 191 186 220 215 180 188 206 214 223 237 235 237 259 215 244 261 312 285 208 108 88 103 144 168 76 201 222 263 264 231 233 252 265 266 260 9 282
319 313 310 274 219 209 212 185 179 185 189 187 239 199 181 200 223 228 218 215 228 196 240 232 233 256 257 271 247 98 134 143 165 89 72 336 247 268 280 332 210 317 326 321 260 229 280
321 313 312 287 232 202 179 167 183 180 191 210 248 174 222 187 211 231 247 234 214 205 229 230 224 234 239 244 237 138 215 153 131 105 154 11 252 268 270 225 186 210 262 258 251 255 248
320 302 299 223 194 185 180 171 174 181 189 203 290 324 225 220 202 209 220 257 198 211 191 224 214 221 228 230 236 262 155 172 154 163 163 108 234 303 296 298 280 272 263 276 276 283 288
312 304 258 266 217 193 174 176 181 192 190 210 237 287 253 214 198 202 212 220 232 219 192 207 203 233 231 213 63 75 77 305 229 164 148 160 310 298 281 299 291 252 332 270 320 41 26
306 294 249 250 209 185 170 181 187 194 197 244 283 329 250 16 305 191 205 190 219 228 193 227 203 228 222 216 100 130 118 263 96 74 50 173 197 284 270 279 279 96 43 68 69 52 30
284 266 243 195 196 187 177 183 190 198 192 211 323 323 313 110 284 245 201 184 214 173 222 255 223 182 155 186 201 195 158 190 187 150 151 201 266 264 262 242 229 104 19 10 21 54 27
273 239 225 199 194 184 179 188 193 197 183 212 342 288 323 37 29 306 263 223 199 184 194 241 125 68 336 230 212 197 216 208 218 174 185 173 228 242 242 260 262 84 111 287 311 136 14
267 219 204 193 191 179 179 191 193 193 191 218 327 313 337 283 284 315 40 308 43 301 275 209 174 220 233 229 212 213 219 242 217 200 148 202 215 210 224 244 115 10 326 285 249 37 10
217 184 188 185 188 178 183 185 196 197 191 222 8 279 348 344 351 339 23 21 38 27 343 251 140 201 198 228 231 223 240 284 188 154 168 218 187 274 282 282 202 356 35 18 16 42 27
130 168 173 177 180 182 184 189 197 204 182 182 323 264 289 324 79 297 354 41 50 46 353 297 237 179 192 210 239 353 45 351 258 146 334 199 24 35 37 88 106 57 58 66 55 68 64
Wind_Speed_850mb
41 42 42 41 41 40 39 39 37 36 33 32 32 33 33 35 38 40 44 48 48 46 43 40 38 32 33 20 24 3 0 16 30 36 23 28 28 31 33 40 38 31 33 20 9 8 25
42 43 44 44 43 42 42 42 40 38 37 36 34 33 34 35 38 41 45 49 50 47 42 39 36 30 27 33 4 5 6 20 26 23 19 29 24 32 36 47 32 34 34 44 17 17 17
46 44 45 46 46 46 44 43 41 40 40 38 36 34 34 35 38 42 46 49 51 46 40 36 31 27 27 38 6 12 21 21 23 21 24 26 29 29 40 31 44 42 21 35 29 19 16
51 49 47 47 48 48 48 46 44 42 40 39 37 35 35 36 37 41 47 49 49 45 37 31 26 21 23 11 13 19 23 20 20 22 24 22 27 27 30 36 35 32 29 28 37 29 31
57 55 52 50 50 50 50 49 47 44 41 38 38 35 33 34 36 40 48 50 40 38 31 25 17 18 36 25 22 28 27 25 20 22 22 15 19 26 29 26 28 26 31 36 39 41 20
57 59 58 55 52 52 52 52 50 48 44 40 38 34 30 30 34 39 47 47 37 33 20 17 21 18 36 26 26 30 26 23 22 23 23 20 20 25 27 26 26 25 32 36 30 24 22
61 59 60 60 58 54 53 54 53 50 46 43 38 33 28 28 29 34 41 37 26 3 13 36 23 33 12 19 25 27 28 23 26 29 27 33 24 29 36 35 35 36 40 37 32 31 29
71 66 62 60 62 59 55 55 54 51 49 44 39 32 28 25 25 26 21 20 12 21 28 43 50 46 39 25 26 31 32 27 34 30 33 27 31 35 34 35 35 40 39 25 32 37 17
75 78 72 65 61 62 58 55 55 53 50 46 40 33 27 23 22 17 13 14 18 23 20 39 50 56 43 23 32 41 40 41 32 32 32 35 38 38 34 31 17 22 26 24 34 25 6
57 66 81 73 64 62 61 57 56 55 51 47 40 34 27 22 20 15 24 9 19 18 12 30 34 35 53 42 38 40 42 43 29 31 36 37 40 15 25 16 22 27 29 34 36 31 22
58 59 63 79 72 59 64 60 55 55 53 48 41 35 28 23 22 18 11 17 20 10 12 35 34 26 42 51 20 44 44 46 38 29 25 26 27 29 23 24 25 28 27 22 30 33 34
56 56 56 58 75 78 63 64 56 52 53 50 42 38 31 17 24 17 18 20 15 13 15 21 23 28 36 44 51 38 36 46 36 32 25 33 12 14 20 27 24 15 19 25 22 20 27
45 52 56 55 58 69 69 68 59 52 53 51 45 41 39 31 23 5 15 17 12 17 18 20 29 32 36 32 42 33 36 38 26 23 26 26 26 19 26 31 30 14 23 16 19 22 24
40 45 52 54 53 55 71 68 59 49 52 51 46 45 44 46 28 20 17 18 20 26 40 3 27 37 33 36 35 30 34 30 36 31 23 25 31 40 25 30 21 23 26 21 25 23 20
42 40 48 56 56 51 63 63 60 55 49 48 44 44 47 39 32 21 24 23 23 30 10 15 11 19 35 38 30 30 37 36 36 33 31 21 19 20 26 18 26 24 23 30 30 33 27
35 44 47 53 57 55 58 60 61 48 49 46 40 29 46 37 34 28 21 35 36 42 12 14 15 26 27 34 32 34 33 36 34 38 31 27 14 17 17 16 26 29 24 14 12 21 25
43 47 51 51 52 54 59 63 65 51 45 45 34 22 39 48 36 34 24 37 40 45 9 12 25 30 32 26 28 25 24 18 21 13 22 20 11 5 15 16 26 19 21 21 21 17 19
41 38 41 31 38 48 61 62 65 56 51 45 21 17 40 50 31 35 28 41 48 35 20 19 18 33 29 18 33 31 33 19 22 7 19 18 7 18 22 21 26 11 9 3 9 17 19
38 38 30 8 13 47 43 63 66 55 59 31 15 40 34 51 24 26 40 41 46 22 16 21 18 26 23 15 18 26 25 21 20 10 5 13 8 13 22 10 15 16 16 18 12 7 19
38 33 26 18 32 28 55 73 64 59 55 27 17 10 25 43 47 37 33 38 37 18 33 32 23 22 17 21 7 16 23 14 26 20 13 8 3 13 7 17 7 18 22 9 16 10 18
34 27 22 12 34 48 72 78 61 63 57 40 15 13 35 25 32 31 34 28 30 24 38 36 18 15 24 19 16 23 29 23 23 11 9 3 8 17 12 19 20 11 32 17 21 31 17
27 20 15 20 38 56 77 81 60 60 50 34 16 4 39 37 48 38 26 27 35 37 30 27 20 29 25 21 23 26 28 23 25 18 13 5 6 12 20 23 25 27 26 26 25 25 26
27 19 16 18 36 56 66 85 61 53 51 27 13 21 24 15 33 32 28 28 23 25 27 44 37 28 23 23 30 32 31 45 19 21 13 8 5 9 17 26 27 16 10 15 8 29 30
24 20 17 16 45 71 81 66 59 52 59 11 17 22 23 4 14 26 34 35 28 26 23 28 35 32 17 13 9 43 45 29 24 16 15 8 6 8 16 20 25 16 12 13 20 32 31
32 23 20 19 43 65 88 68 58 49 52 14 15 22 20 6 24 25 31 33 33 22 13 14 24 22 1 13 14 11 15 13 14 24 18 4 7 9 15 20 18 17 26 15 13 28 32
37 34 34 38 56 69 93 65 52 46 50 12 13 23 15 8 5 20 19 15 14 19 22 30 17 9 3 11 18 17 16 16 16 22 15 17 13 9 13 18 26 19 24 42 15 8 32
29 34 46 51 51 84 88 58 48 48 45 8 8 19 10 14 8 33 10 6 3 7 9 29 13 8 10 14 21 20 22 29 14 10 8 17 18 19 18 19 12 24 24 31 13 8 20
6 31 47 55 52 84 84 53 39 39 46 10 7 12 9 12 4 16 12 29 13 11 6 9 16 21 20 21 21 20 19 1 11 18 18 24 5 15 9 18 5 54 12 13 8 12 13
10 27 46 43 60 83 93 49 34 42 42 15 3 13 9 6 6 19 9 10 17 14 12 17 9 25 23 18 12 5 13 1 14 7 12 6 14 5 10 9 11 34 19 12 11 13 12
Wind_Direction_850mb
278 272 271 269 268 268 268 270 271 275 280 284 289 294 302 310 316 323 325 328 330 327 322 319 320 318 319 288 255 307 251 169 164 170 210 210 221 235 234 246 238 241 265 254 272 226 259
280 276 271 270 266 263 264 265 268 271 274 276 279 286 295 304 313 319 322 326 327 323 317 313 314 309 312 272 235 238 193 174 172 192 224 209 218 221 238 254 244 238 249 274 230 232 227
279 276 272 269 267 265 263 261 263 265 268 272 277 282 289 299 307 316 320 325 324 319 311 306 306 299 288 252 215 179 178 181 186 215 223 220 225 218 239 283 274 254 230 254 272 226 242
278 277 274 271 268 266 265 262 261 261 264 269 274 279 288 297 306 314 319 323 321 315 304 299 297 287 263 191 212 194 198 204 208 218 233 227 234 257 238 243 265 264 259 259 237 235 227
274 274 273 270 268 265 264 263 263 261 260 263 267 273 281 294 305 314 317 321 316 310 300 290 279 250 265 216 221 209 203 208 209 217 225 246 223 237 239 245 255 234 237 232 260 211 222
272 271 271 270 267 264 262 262 260 261 260 259 263 269 277 290 304 316 321 328 313 296 293 275 243 265 242 226 204 197 202 206 205 209 209 220 220 229 235 221 232 216 227 257 243 179 201
270 270 267 267 266 264 260 259 259 258 259 259 260 264 273 287 302 319 333 353 325 301 275 250 286 231 279 184 161 198 198 206 201 206 214 205 216 217 223 229 236 258 221 225 257 245 191
264 264 264 265 263 263 260 257 256 256 256 256 257 256 265 279 297 317 322 323 340 311 301 273 258 244 250 211 201 208 196 206 198 210 212 216 228 237 228 236 220 249 266 285 277 274 217
264 260 261 259 262 259 259 257 254 252 252 252 251 251 256 269 288 288 314 292 323 317 279 285 238 225 221 218 228 203 195 209 203 218 213 234 226 214 246 232 259 267 270 265 264 285 65
277 263 255 259 260 258 254 254 252 249 247 247 245 243 248 257 278 288 282 289 322 314 276 245 205 217 210 208 231 217 200 209 228 220 228 224 254 245 227 239 238 243 243 245 267 268 259
274 271 261 256 254 256 254 248 247 246 243 240 238 235 236 241 253 274 318 309 309 291 281 144 174 205 190 197 183 217 191 215 237 216 236 234 234 250 238 237 234 262 282 280 239 258 273
275 271 265 261 251 250 253 241 239 238 241 235 230 228 228 233 257 257 277 297 290 235 242 151 145 183 179 204 229 183 192 214 230 255 230 259 294 271 224 248 254 276 271 266 280 268 252
285 272 266 262 260 249 246 239 230 230 232 232 224 224 221 211 207 248 281 279 229 236 235 151 164 182 195 193 212 180 197 205 221 226 235 227 237 220 251 238 239 215 251 242 230 231 246
298 280 269 265 258 257 239 241 213 224 227 225 222 226 222 222 220 265 272 246 241 228 248 13 182 172 192 191 215 166 192 200 220 234 248 219 218 210 199 249 218 209 241 248 256 244 273
309 294 279 267 252 252 236 236 205 213 220 220 221 223 235 224 225 230 240 229 222 250 295 171 242 195 194 186 205 182 203 214 202 229 243 281 224 149 184 208 264 256 209 235 268 284 284
318 305 290 267 253 246 238 226 190 192 216 212 217 235 233 219 207 210 229 242 244 253 345 317 256 216 206 193 195 189 197 212 217 203 226 272 297 149 189 230 249 255 274 288 246 271 275
310 308 298 274 253 238 231 218 184 191 209 199 206 224 216 204 190 216 225 231 240 262 275 251 269 298 249 193 186 192 209 199 204 154 190 247 268 274 132 210 238 215 251 258 284 305 310
315 318 323 283 248 235 215 200 178 189 198 194 211 222 187 176 190 216 224 232 251 280 181 241 265 280 295 263 185 219 230 156 175 182 215 224 300 257 219 221 225 292 335 11 256 263 262
318 322 324 297 190 187 209 184 176 186 191 186 220 215 180 188 206 214 223 237 235 237 259 215 244 261 312 285 208 108 88 103 144 168 76 201 222 263 264 231 233 252 265 266 260 9 282
319 313 310 274 219 209 212 185 179 185 189 187 239 199 181 200 223 228 218 215 228 196 240 232 233 256 257 271 247 98 134 143 165 89 72 336 247 268 280 332 210 317 326 321 260 229 280
321 313 312 287 232 202 179 167 183 180 191 210 248 174 222 187 211 231 247 234 214 205 229 230 224 234 239 244 237 138 215 153 131 105 154 11 252 268 270 225 186 210 262 258 251 255 248
320 302 299 223 194 185 180 171 174 181 189 203 290 324 225 220 202 209 220 257 198 211 191 224 214 221 228 230 236 262 155 172 154 163 163 108 234 303 296 298 280 272 263 276 276 283 288
312 304 258 266 217 193 174 176 181 192 190 210 237 287 253 214 198 202 212 220 232 219 192 207 203 233 231 213 63 75 77 305 229 164 148 160 310 298 281 299 291 252 332 270 320 41 26
306 294 249 250 209 185 170 181 187 194 197 244 283 329 250 16 305 191 205 190 219 228 193 227 203 228 222 216 100 130 118 263 96 74 50 173 197 284 270 279 279 96 43 68 69 52 30
284 266 243 195 196 187 177 183 190 198 192 211 323 323 313 110 284 245 201 184 214 173 222 255 223 182 155 186 201 195 158 190 187 150 151 201 266 264 262 242 229 104 19 10 21 54 27
273 239 225 199 194 184 179 188 193 197 183 212 342 288 323 37 29 306 263 223 199 184 194 241 125 68 336 230 212 197 216 208 218 174 185 173 228 242 242 260 262 84 111 287 311 136 14
267 219 204 193 191 179 179 191 193 193 191 218 327 313 337 283 284 315 40 308 43 301 275 209 174 220 233 229 212 213 219 242 217 200 148 202 215 210 224 244 115 10 326 285 249 37 10
217 184 188 185 188 178 183 185 196 197 191 222 8 279 348 344 351 339 23 21 38 27 343 251 140 201 198 228 231 223 240 284 188 154 168 218 187 274 282 282 202 356 35 18 16 42 27
130 168 173 177 180 182 184 189 197 204 182 182 323 264 289 324 79 297 354 41 50 46 353 297 237 179 192 210 239 353 45 351 258 146 334 199 24 35 37 88 106 57 58 66 55 68 64